User: anonymous   Login
Location: Unspecified
(0.0000°N, 0.0000°E)
Time: 09:38:00
(UTC+01:00)
Language:

Ariane H10 - Orbit

View from above orbital plane
View from above orbital plane
View from above satellite
View from above satellite

Ground track
Ground track

The orbit data is extracted from the following two-line orbital elements,

1 19122U 88040B   17018.73374282  .00000025  00000-0  67357-3 0  9996
2 19122   7.0915 235.8822 7146093  15.2875 358.3071  2.33411982193459
Epoch (UTC): 18 January 2017 17:36:35
Eccentricity: 0.7146093
inclination: 7.0915°
perigee height: 473 km
apogee height: 34782 km
right ascension of ascending node: 235.8822°
argument of perigee: 15.2875°
revolutions per day: 2.33411982
mean anomaly at epoch: 358.3071°
orbit number at epoch: 19345

The dashed part of the orbit path shows where the satellite is in the earth's shadow,  

DLR